Simultaneous Nadir Overpasses (SNOs) Predictions

Prediction of SNOs between NOAA-15 and METOP-C Satellite Orbit:

Table of predicted SNOs for the next 14.0 days since TLE Epoch: 5/12/2019
Index Date (NOAA-15) Time (NOAA-15) Lat,Lon (NOAA-15) SZA (NOAA-15 ) Date (METOP-C) Time (METOP-C) Lat,Lon (METOP-C) SZA (METOP-C ) Distance(km) Time Diff (sec)
1 05/25/2019 10:26:30 80.79, 56.54 61.49 05/25/2019 10:25:18 80.81, 56.60 61.48 1.90 72
2 05/25/2019 11:17:05 -80.81,-136.33 118.53 05/25/2019 11:16:01 -80.79,-136.43 118.58 2.73 64
3 05/25/2019 12:07:33 80.80, 31.19 61.47 05/25/2019 12:06:40 80.80, 31.13 61.45 1.17 53
4 05/25/2019 12:58:08 -80.81,-161.68 118.55 05/25/2019 12:57:22 -80.80,-161.55 118.57 2.61 46
5 05/25/2019 13:48:36 80.80, 5.85 61.46 05/25/2019 13:48:01 80.81, 6.00 61.46 2.95 35
6 05/25/2019 14:39:10 -80.80, 173.32 118.55 05/25/2019 14:38:43 -80.81, 173.32 118.55 1.64 27
7 05/25/2019 15:29:39 80.81, -19.50 61.44 05/25/2019 15:29:23 80.81, -19.47 61.43 0.59 16
8 05/25/2019 16:20:13 -80.80, 147.98 118.57 05/25/2019 16:20:05 -80.80, 147.85 118.58 2.29 8
9 05/25/2019 17:10:42 80.81, -44.84 61.42 05/25/2019 17:10:45 80.80, -44.95 61.40 2.53 3
10 05/25/2019 18:01:16 -80.81, 122.63 118.58 05/25/2019 18:01:26 -80.82, 122.72 118.56 2.04 10
11 05/25/2019 18:51:45 80.82, -70.19 61.41 05/25/2019 18:52:06 80.81, -70.07 61.42 2.26 21
12 05/25/2019 19:42:19 -80.81, 97.28 118.60 05/25/2019 19:42:48 -80.81, 97.25 118.59 0.58 29
13 05/25/2019 20:32:47 80.80, -95.18 61.41 05/25/2019 20:33:27 80.82, -95.19 61.44 2.07 40
14 05/25/2019 21:23:22 -80.82, 71.93 118.62 05/25/2019 21:24:10 -80.80, 71.78 118.62 3.19 48
15 05/25/2019 22:13:50 80.81,-120.53 61.39 05/25/2019 22:14:49 80.81,-120.67 61.40 2.68 59
16 05/25/2019 23:04:25 -80.82, 46.58 118.63 05/25/2019 23:05:31 -80.81, 46.65 118.61 1.47 66




NCC Satellite Simultaneous Nadir Overpasses (SNOs) Prediction Service
